TimeCST,TemperatureF,Dew PointF,Humidity,Sea Level PressureIn,VisibilityMPH,Wind Direction,Wind SpeedMPH,Gust SpeedMPH,PrecipitationIn,Events,Conditions,WindDirDegrees,DateUTC
12:15 AM,41.0,37.4,87,29.95,5.0,NNW,4.6,-,N/A,,Scattered Clouds,340,2012-12-08 06:15:00
12:35 AM,39.2,37.4,93,29.94,5.0,North,5.8,-,N/A,,Scattered Clouds,350,2012-12-08 06:35:00
12:55 AM,37.4,37.4,100,29.95,5.0,NNW,5.8,-,N/A,,Scattered Clouds,330,2012-12-08 06:55:00
1:15 AM,37.4,37.4,100,29.94,5.0,NNW,3.5,-,N/A,,Clear,340,2012-12-08 07:15:00
1:35 AM,37.4,35.6,93,29.93,4.0,Calm,Calm,-,N/A,,Clear,0,2012-12-08 07:35:00
1:55 AM,35.6,35.6,100,29.95,2.5,Calm,Calm,-,N/A,,Clear,0,2012-12-08 07:55:00
2:15 AM,33.8,33.8,100,29.95,1.0,Calm,Calm,-,N/A,,Mist,0,2012-12-08 08:15:00
2:35 AM,33.8,33.8,100,29.96,1.2,North,4.6,-,N/A,,Mist,350,2012-12-08 08:35:00
2:55 AM,32.0,32.0,100,29.96,0.2,Calm,Calm,-,N/A,Fog,Fog,0,2012-12-08 08:55:00
3:15 AM,32.0,32.0,100,29.96,0.2,Calm,Calm,-,N/A,Fog,Fog,0,2012-12-08 09:15:00
3:35 AM,32.0,32.0,100,29.96,0.2,Calm,Calm,-,N/A,Fog,Light Freezing Fog,0,2012-12-08 09:35:00
3:55 AM,30.2,30.2,100,29.97,0.2,Calm,Calm,-,N/A,Fog,Light Freezing Fog,0,2012-12-08 09:55:00
4:15 AM,30.2,30.2,100,29.96,0.2,North,3.5,-,N/A,Fog,Light Freezing Fog,350,2012-12-08 10:15:00
4:35 AM,30.2,30.2,100,29.97,0.2,Calm,Calm,-,N/A,Fog,Light Freezing Fog,0,2012-12-08 10:35:00
4:55 AM,30.2,30.2,100,29.97,0.2,Calm,Calm,-,N/A,Fog,Light Freezing Fog,0,2012-12-08 10:55:00
5:15 AM,30.2,30.2,100,29.98,0.2,Calm,Calm,-,N/A,Fog,Light Freezing Fog,0,2012-12-08 11:15:00
5:35 AM,30.2,30.2,100,29.97,0.2,Calm,Calm,-,N/A,Fog,Light Freezing Fog,0,2012-12-08 11:35:00
5:55 AM,30.2,30.2,100,29.98,0.2,Calm,Calm,-,N/A,Fog,Light Freezing Fog,0,2012-12-08 11:55:00
6:15 AM,30.2,30.2,100,29.97,0.2,Calm,Calm,-,N/A,Fog,Light Freezing Fog,0,2012-12-08 12:15:00
6:35 AM,30.2,30.2,100,29.98,0.2,Calm,Calm,-,N/A,Fog,Light Freezing Fog,0,2012-12-08 12:35:00
6:55 AM,30.2,30.2,100,29.99,0.2,Calm,Calm,-,N/A,Fog,Light Freezing Fog,0,2012-12-08 12:55:00
7:15 AM,30.2,30.2,100,30.00,1.0,Calm,Calm,-,N/A,,Overcast,0,2012-12-08 13:15:00
7:35 AM,30.2,30.2,100,30.00,0.8,Calm,Calm,-,N/A,,Overcast,0,2012-12-08 13:35:00
7:55 AM,30.2,30.2,100,30.00,3.0,Calm,Calm,-,N/A,,Scattered Clouds,0,2012-12-08 13:55:00
8:15 AM,32.0,32.0,100,30.01,3.0,Calm,Calm,-,N/A,,Clear,0,2012-12-08 14:15:00
8:35 AM,32.0,32.0,100,30.00,4.0,Calm,Calm,-,N/A,,Clear,0,2012-12-08 14:35:00
8:55 AM,32.0,32.0,100,30.01,3.0,Calm,Calm,-,N/A,,Clear,0,2012-12-08 14:55:00
9:15 AM,33.8,33.8,100,30.01,4.0,Calm,Calm,-,N/A,,Clear,0,2012-12-08 15:15:00
9:35 AM,35.6,35.6,100,30.01,7.0,Calm,Calm,-,N/A,,Clear,0,2012-12-08 15:35:00
9:55 AM,37.4,37.4,100,30.01,7.0,Calm,Calm,-,N/A,,Scattered Clouds,0,2012-12-08 15:55:00
10:15 AM,39.2,35.6,87,30.01,10.0,NE,4.6,-,N/A,,Scattered Clouds,40,2012-12-08 16:15:00
10:35 AM,41.0,35.6,81,30.01,10.0,NE,5.8,-,N/A,,Clear,40,2012-12-08 16:35:00
10:55 AM,41.0,35.6,81,30.00,10.0,NE,8.1,-,N/A,,Clear,50,2012-12-08 16:55:00
11:15 AM,41.0,35.6,81,30.00,10.0,NE,8.1,-,N/A,,Clear,50,2012-12-08 17:15:00
11:35 AM,41.0,35.6,81,29.98,10.0,ENE,8.1,-,N/A,,Scattered Clouds,60,2012-12-08 17:35:00
11:55 AM,41.0,35.6,81,29.97,10.0,NE,9.2,-,N/A,,Scattered Clouds,50,2012-12-08 17:55:00
12:15 PM,44.6,35.6,71,29.96,10.0,ENE,6.9,-,N/A,,Mostly Cloudy,70,2012-12-08 18:15:00
12:35 PM,42.8,35.6,76,29.95,10.0,ENE,8.1,-,N/A,,Scattered Clouds,70,2012-12-08 18:35:00
12:55 PM,42.8,35.6,76,29.95,10.0,SE,5.8,-,N/A,,Mostly Cloudy,130,2012-12-08 18:55:00
1:15 PM,42.8,35.6,76,29.95,10.0,SSE,8.1,-,N/A,,Overcast,150,2012-12-08 19:15:00
1:35 PM,41.0,35.6,81,29.95,7.0,SSE,9.2,-,N/A,,Overcast,150,2012-12-08 19:35:00
1:55 PM,41.0,35.6,81,29.94,10.0,SSE,5.8,-,N/A,,Overcast,150,2012-12-08 19:55:00
2:15 PM,41.0,35.6,81,29.93,10.0,SE,6.9,-,N/A,,Mostly Cloudy,140,2012-12-08 20:15:00
2:35 PM,41.0,35.6,81,29.93,10.0,SSE,3.5,-,N/A,,Scattered Clouds,160,2012-12-08 20:35:00
2:55 PM,42.8,35.6,76,29.93,10.0,ESE,3.5,-,N/A,,Clear,110,2012-12-08 20:55:00
3:15 PM,42.8,35.6,76,29.93,10.0,ESE,3.5,-,N/A,,Scattered Clouds,120,2012-12-08 21:15:00
3:35 PM,42.8,35.6,76,29.92,10.0,East,6.9,-,N/A,,Scattered Clouds,100,2012-12-08 21:35:00
3:55 PM,42.8,35.6,76,29.92,10.0,East,8.1,-,N/A,,Mostly Cloudy,100,2012-12-08 21:55:00
4:15 PM,42.8,33.8,70,29.92,10.0,East,9.2,-,N/A,,Mostly Cloudy,100,2012-12-08 22:15:00
4:35 PM,42.8,35.6,76,29.92,10.0,East,5.8,-,N/A,,Mostly Cloudy,100,2012-12-08 22:35:00
4:55 PM,41.0,35.6,81,29.92,10.0,East,6.9,-,N/A,,Mostly Cloudy,100,2012-12-08 22:55:00
5:15 PM,41.0,35.6,81,29.91,10.0,East,8.1,-,N/A,,Mostly Cloudy,100,2012-12-08 23:15:00
5:35 PM,41.0,35.6,81,29.90,10.0,ESE,6.9,-,N/A,,Overcast,110,2012-12-08 23:35:00
5:55 PM,41.0,35.6,81,29.91,10.0,East,6.9,-,N/A,,Overcast,90,2012-12-08 23:55:00
6:15 PM,41.0,35.6,81,29.90,10.0,East,9.2,-,N/A,,Overcast,90,2012-12-09 00:15:00
6:35 PM,41.0,33.8,76,29.90,10.0,East,8.1,17.3,N/A,,Overcast,100,2012-12-09 00:35:00
6:55 PM,41.0,33.8,76,29.90,10.0,East,12.7,16.1,N/A,,Overcast,100,2012-12-09 00:55:00
7:15 PM,41.0,33.8,76,29.90,10.0,East,10.4,-,N/A,,Overcast,90,2012-12-09 01:15:00
7:55 PM,41.0,35.6,81,29.92,7.0,ENE,10.4,-,N/A,,Overcast,70,2012-12-09 01:55:00
8:15 PM,39.2,35.6,87,29.91,7.0,ENE,8.1,-,N/A,,Overcast,70,2012-12-09 02:15:00
8:35 PM,39.2,35.6,87,29.90,7.0,East,9.2,-,N/A,,Light Drizzle,80,2012-12-09 02:35:00
8:55 PM,39.2,35.6,87,29.90,5.0,East,9.2,-,N/A,,Overcast,100,2012-12-09 02:55:00
9:15 PM,37.4,35.6,93,29.90,2.5,East,6.9,-,N/A,Rain,Light Rain,100,2012-12-09 03:15:00
9:35 PM,37.4,35.6,93,29.90,5.0,East,6.9,-,N/A,,Overcast,90,2012-12-09 03:35:00
9:55 PM,37.4,35.6,93,29.90,4.0,East,5.8,-,N/A,,Overcast,100,2012-12-09 03:55:00
10:15 PM,37.4,35.6,93,29.90,5.0,East,6.9,-,N/A,,Overcast,100,2012-12-09 04:15:00
10:35 PM,37.4,35.6,93,29.90,5.0,East,5.8,-,N/A,,Overcast,90,2012-12-09 04:35:00
10:55 PM,37.4,35.6,93,29.89,4.0,East,8.1,-,N/A,,Overcast,100,2012-12-09 04:55:00
11:15 PM,37.4,37.4,100,29.90,4.0,East,5.8,-,N/A,,Overcast,90,2012-12-09 05:15:00
11:35 PM,37.4,37.4,100,29.90,4.0,East,5.8,-,N/A,,Overcast,90,2012-12-09 05:35:00
11:55 PM,37.4,37.4,100,29.89,3.0,ESE,4.6,-,N/A,,Overcast,110,2012-12-09 05:55:00